Location: Mentone
(34.5413°N, 85.5351°W)
Time: 02:17:37
(UTC-05:00)

Vanguard 1 - Visible Passes

Search period start: 26 May 2017 00:00
Search period end: 05 June 2017 00:00
Orbit: 654 x 3830 km, 34.2° (Epoch: 25 May)

Date Brightness Start Highest point End Pass type
(mag) Time Alt. Az. Time Alt. Az. Time Alt. Az.
26 May 13.6 01:40:46 10° W 01:46:52 18° WSW 01:46:52 18° WSW visible
26 May 12.1 21:13:51 10° W 21:25:31 73° SSW 21:40:33 22° ESE visible
26 May 12.8 23:35:45 10° W 23:50:22 42° SSW 23:53:12 40° SSW visible
27 May 12.2 21:35:03 10° W 21:47:01 64° SSW 21:59:38 28° SE visible
27 May 13.0 23:57:45 10° W 00:11:50 33° SW 00:12:17 33° SW visible
28 May 12.4 21:56:19 10° W 22:08:30 55° SSW 22:18:48 32° SSE visible
29 May 13.3 00:20:18 10° W 00:31:27 25° SW 00:31:27 25° SW visible
29 May 11.7 19:56:59 10° W 20:06:11 77° SSW 20:23:47 10° ESE visible
29 May 12.6 22:17:44 10° W 22:30:00 46° SSW 22:38:02 33° SSE visible
30 May 13.5 00:43:52 10° WSW 00:50:42 17° SW 00:50:42 17° SW visible
30 May 11.8 20:18:05 10° W 20:27:35 68° SSW 20:44:40 12° ESE visible
30 May 12.8 22:39:24 10° W 22:51:29 37° SSW 22:57:21 32° S visible
31 May 12.0 20:39:14 10° W 20:48:59 59° SSW 21:04:03 16° SE visible
31 May 13.0 23:01:24 10° W 23:13:01 29° SSW 23:16:44 27° SSW visible
01 Jun 12.2 21:00:29 10° W 21:10:25 49° SSW 21:23:30 19° SE visible
01 Jun 13.3 23:24:05 10° WSW 23:34:34 22° SW 23:36:11 22° SSW visible
02 Jun 12.5 21:21:55 10° W 21:31:51 40° SSW 21:43:00 20° SSE visible
02 Jun 13.5 23:48:05 10° WSW 23:55:42 15° SW 23:55:42 15° SW visible
03 Jun 12.7 21:43:35 10° W 21:53:21 32° SSW 22:02:35 20° SSE visible
04 Jun 13.0 22:05:45 10° W 22:14:53 24° SSW 22:22:12 18° S visible
